DateTimeUTC,F1_A11,F1_S11,BsB_S11,BsG_S11,BsR_S11,BbsB_S11,BbsG_S11,BbsR_S11,BaB_A11,BaG_A11,BaR_A11,Tu_S11,T_S11,Uu_S11,U_S11,P_S11,T1_A11
2021-01-10T14:00:00Z,00000200,21000000,,,,,,,-000.01,0000.01,0000.09,15.7,23.0,,00.0,0639.5,30.8
2021-01-10T14:01:00Z,00000200,21000000,,,,,,,0000.18,-000.31,-000.25,15.6,23.0,,00.0,0639.5,30.8
2021-01-10T14:02:00Z,00000200,21000000,,,,,,,-000.31,0000.30,-000.01,15.6,23.0,,00.0,0639.5,30.8
2021-01-10T14:03:00Z,00000200,61000000,,,,,,,0000.38,0000.11,0000.46,15.6,23.0,,00.0,0639.5,30.8
2021-01-10T14:04:00Z,00000200,41000000,-000.14,0000.36,0000.01,0000.18,-000.02,0000.04,0000.04,-000.03,-000.20,15.7,22.7,,00.0,0640.4,30.8
2021-01-10T14:05:00Z,00000200,01000000,0000.02,-000.02,0000.06,-000.11,-000.07,0000.26,0000.07,0000.67,0000.30,15.7,22.6,,00.0,0640.4,30.8
2021-01-10T14:06:00Z,00000200,01000000,-000.86,0000.18,0000.17,-000.80,0000.11,0000.05,0000.26,0000.26,0000.29,15.8,22.6,,00.0,0640.5,30.8
2021-01-10T14:07:00Z,00000200,01000000,-000.53,0000.67,0000.09,-000.17,0000.14,0000.08,0000.08,0000.09,0000.16,15.8,22.6,,00.0,0640.5,30.8
2021-01-10T14:08:00Z,00000200,01000000,0000.05,0000.03,-000.12,-000.23,0000.10,0000.21,0000.29,0000.00,0000.20,15.9,22.6,,00.0,0640.5,30.8
2021-01-10T14:09:00Z,00000200,01010000,-000.20,0000.22,-000.11,-000.16,0000.07,0000.01,-000.04,0000.02,0000.01,16.0,22.7,,00.0,0640.5,30.8
2021-01-10T14:10:00Z,00000200,01000000,0000.07,0000.38,0000.10,0000.16,0000.08,0000.36,-000.04,-000.04,0000.02,16.1,22.7,,00.0,0640.5,30.8
2021-01-10T14:11:00Z,00000200,01000000,0000.01,0000.20,0000.34,-000.56,0000.04,-000.00,0000.33,0000.00,0000.05,16.2,22.7,,00.0,0640.5,30.8
2021-01-10T14:12:00Z,00000200,01000000,-000.21,0000.07,-000.02,-000.19,-000.07,0000.21,0000.19,0000.33,-000.04,16.3,22.8,,00.0,0640.4,30.9
2021-01-10T14:13:00Z,00000200,01000000,-000.35,-000.06,0000.15,-000.29,-000.17,0000.10,-000.11,-000.16,0000.17,16.3,22.8,,00.0,0640.4,30.9
2021-01-10T14:14:00Z,00000200,01000000,-000.21,0000.07,0000.28,-000.00,-000.11,-000.10,0000.11,0000.24,-000.06,16.4,22.8,,00.0,0640.4,30.9
2021-01-10T14:15:00Z,00000200,01000000,0000.07,-000.03,0000.18,-000.50,-000.02,0000.43,0000.17,-000.40,-000.01,16.3,22.8,,00.0,0640.4,30.8
2021-01-10T14:16:00Z,00000200,01000000,0000.31,0000.21,-000.08,-000.50,0000.14,0000.04,-000.16,0000.36,-000.01,16.3,22.8,,00.0,0640.4,30.8
2021-01-10T14:17:00Z,00000200,01000000,0000.06,0000.50,-000.10,-000.07,-000.08,0000.12,0000.10,0000.04,-000.16,16.2,22.8,,00.0,0640.4,30.8
2021-01-10T14:18:00Z,00000200,01000000,-000.09,0000.30,0000.03,-000.40,0000.09,0000.08,-000.13,-000.40,-000.33,16.2,22.8,,00.0,0640.4,30.8
2021-01-10T14:19:00Z,00000200,01000000,-000.18,0000.35,0000.04,0000.59,-000.02,0000.17,0000.25,0000.35,0000.43,16.1,22.7,,00.0,0640.4,30.8
2021-01-10T14:20:00Z,00000200,01000000,-000.09,-000.07,0000.02,-000.30,0000.19,0000.14,0000.22,0000.23,0000.57,16.1,22.7,,00.0,0640.4,30.8
2021-01-10T14:21:00Z,00000200,01000000,-000.34,0000.41,0000.21,-000.85,-000.12,-000.06,-000.10,0000.11,-000.06,16.1,22.7,,00.0,0640.4,30.8
2021-01-10T14:22:00Z,00000200,01000000,-000.04,0000.30,0000.05,0000.22,-000.03,0000.22,0000.46,0000.35,0000.11,16.2,22.7,,00.0,0640.4,30.8
2021-01-10T14:23:00Z,00000200,01000000,-001.09,0000.30,-000.02,-000.68,0000.07,-000.03,0000.25,0000.38,0000.04,16.3,22.8,,00.0,0640.4,30.8
2021-01-10T14:24:00Z,00000200,01000000,0000.36,0000.51,0000.21,-000.16,-000.11,0000.14,-000.06,-000.29,0000.21,16.3,22.8,,00.0,0640.4,30.8
2021-01-10T14:25:00Z,00000200,01000000,-000.25,0000.31,-000.10,-000.02,0000.00,0000.25,0000.09,0000.46,0000.14,16.4,22.9,,00.0,0640.4,30.9
2021-01-10T14:26:00Z,00000200,01000000,0000.17,0000.24,0000.05,-000.31,-000.06,0000.15,0000.26,0000.20,0000.02,16.5,22.9,,00.0,0640.4,30.9
2021-01-10T14:27:00Z,00000200,01000000,-000.01,0000.53,0000.05,0000.19,0000.32,-000.02,-000.21,-000.23,-000.23,16.5,22.9,,00.0,0640.4,30.9
2021-01-10T14:28:00Z,00000200,01000000,-000.73,0000.34,0000.06,-000.28,-000.02,0000.29,-000.25,-000.11,0000.04,16.5,22.9,,00.0,0640.4,30.9
2021-01-10T14:29:00Z,00000200,01000000,-000.33,0000.54,0000.26,0000.30,-000.16,0000.03,0000.33,-000.05,-000.13,16.4,22.9,,00.0,0640.5,30.8
2021-01-10T14:30:00Z,00000200,01000000,-000.58,0000.44,0000.01,-000.29,-000.14,0000.03,-000.11,-000.27,-000.12,16.4,22.9,,00.0,0640.5,30.8
2021-01-10T14:31:00Z,00000200,01000000,-000.51,0000.30,0000.05,-000.58,0000.15,-000.04,-000.11,-000.11,-000.04,16.3,22.8,,00.0,0640.5,30.8
2021-01-10T14:32:00Z,00000200,01000000,-000.01,0000.34,0000.29,-000.22,0000.15,0000.23,-000.01,-000.19,-000.14,16.3,22.8,,00.0,0640.4,30.8
2021-01-10T14:33:00Z,00000200,01000000,-000.52,0000.29,0000.14,-000.57,0000.21,0000.08,0000.15,0000.35,0000.08,16.2,22.8,,00.0,0640.4,30.8
2021-01-10T14:34:00Z,00000200,01000000,-000.88,0000.24,0000.03,-000.55,0000.19,0000.06,-000.08,-000.02,0000.12,16.2,22.8,,00.0,0640.4,30.8
2021-01-10T14:35:00Z,00000200,01000000,-000.45,0000.49,0000.23,-000.46,0000.12,0000.33,0000.16,0000.22,0000.28,16.2,22.7,,00.0,0640.4,30.8
2021-01-10T14:36:00Z,00000200,01000000,-000.03,0000.10,0000.04,-000.35,0000.05,0000.20,0000.37,0000.27,0000.33,16.2,22.7,,00.0,0640.4,30.8
2021-01-10T14:37:00Z,00000200,01000000,-000.07,0000.24,0000.07,-000.29,-000.08,0000.14,0000.32,0000.33,0000.15,16.2,22.8,,00.0,0640.4,30.8
2021-01-10T14:38:00Z,00000200,01000000,-000.07,0000.12,-000.20,-000.64,0000.10,0000.32,0000.22,0000.38,0000.39,16.3,22.8,,00.0,0640.4,30.8
2021-01-10T14:39:00Z,00000200,01000000,-000.65,0000.13,0000.18,0000.12,-000.05,0000.18,0000.29,0000.16,-000.35,16.4,22.8,,00.0,0640.4,30.8
2021-01-10T14:40:00Z,00000200,01000000,-000.51,0000.12,0000.11,-000.12,0000.45,0000.29,-000.14,0000.18,0000.31,16.5,22.9,,00.0,0640.4,30.8
2021-01-10T14:41:00Z,00000200,01000000,0000.32,0000.36,-000.09,0000.27,-000.02,-000.06,-000.09,-000.06,-000.19,16.5,22.9,,00.0,0640.4,30.9
2021-01-10T14:42:00Z,00000200,01000000,-000.23,-000.10,-000.15,-000.38,0000.11,-000.16,0000.21,0000.15,0000.50,16.6,22.9,,00.0,0640.4,30.9
2021-01-10T14:43:00Z,00000200,01000000,-000.04,0000.37,-000.01,0000.25,-000.06,0000.18,-000.17,-000.43,-000.84,16.5,22.9,,00.0,0640.4,30.9
2021-01-10T14:44:00Z,00000200,01000000,-000.22,0000.56,0000.23,-000.17,0000.26,0000.17,0000.10,0000.21,0000.41,16.5,22.9,,00.0,0640.4,30.9
2021-01-10T14:45:00Z,00000200,01000000,-000.05,0000.50,0000.45,-000.11,-000.07,0000.06,-000.21,-000.07,-000.16,16.4,22.9,,00.0,0640.4,30.8
2021-01-10T14:46:00Z,00000200,01000000,-000.28,-000.10,0000.10,0000.01,0000.03,0000.31,0000.21,-000.33,-000.28,16.4,22.9,,00.0,0640.4,30.8
2021-01-10T14:47:00Z,00000200,01000000,-000.40,0000.36,-000.07,0000.21,0000.08,0000.19,0000.03,0000.26,0000.20,16.3,22.8,,00.0,0640.4,30.8
2021-01-10T14:48:00Z,00000200,01000000,0000.21,0000.29,0000.01,0000.39,0000.01,-000.06,0000.10,0000.20,0000.15,16.3,22.8,,00.0,0640.3,30.8
2021-01-10T14:49:00Z,00000200,01000000,-000.16,0000.31,0000.09,0000.21,0000.18,0000.25,0000.09,0000.14,-000.03,16.2,22.8,,00.0,0640.3,30.8
2021-01-10T14:50:00Z,00000200,01000000,-000.00,0000.36,-000.06,-000.22,0000.17,-000.04,0000.26,0000.56,0000.34,16.2,22.8,,00.0,0640.3,30.8
2021-01-10T14:51:00Z,00000200,01000000,-000.41,0000.01,0000.04,0000.58,0000.13,0000.20,0000.33,0000.15,0000.42,16.2,22.8,,00.0,0640.3,30.8
2021-01-10T14:52:00Z,00000200,01000000,-000.05,0000.38,0000.17,0000.00,0000.02,0000.20,0000.34,0000.42,0000.08,16.3,22.8,,00.0,0640.3,30.8
2021-01-10T14:53:00Z,00000200,01000000,-000.14,-000.00,-000.02,-000.05,-000.03,0000.01,-000.02,-000.51,-000.01,16.3,22.8,,00.0,0640.4,30.8
2021-01-10T14:54:00Z,00000200,01000000,-000.57,0000.47,0000.40,-000.36,-000.07,0000.26,-000.03,0000.43,0000.08,16.4,22.9,,00.0,0640.4,30.8
2021-01-10T14:55:00Z,00000200,01000000,-000.29,0000.51,-000.27,-000.11,-000.15,-000.01,-000.01,-000.37,-000.10,16.5,22.9,,00.0,0640.4,30.8
2021-01-10T14:56:00Z,00000200,01000000,0000.12,-000.13,-000.09,0000.33,0000.07,0000.22,0000.34,0000.15,0000.08,16.5,22.9,,00.0,0640.4,30.9
2021-01-10T14:57:00Z,00000200,41000000,,,,,,,-001.11,-000.74,-000.57,16.6,22.9,,00.0,0640.4,30.9
2021-01-10T14:58:00Z,00000200,61000000,,,,,,,0000.16,-000.03,-000.03,16.2,23.0,,00.0,0639.5,30.9
2021-01-10T14:59:00Z,00000200,21000000,,,,,,,0000.08,0000.09,-000.11,16.1,23.1,,00.0,0639.5,30.8
